map of KLLQ home
Great Circle Mapper logo
KLLQ - Airport
Location
City:  Monticello, Arkansas, United States
Name:Monticello Municipal/Ellis Field
ICAO:KLLQ
FAA:LLQ

Details
Type:Airport (Airfield)
Use:Public/Civil
Latitude:3338'19"N (33.638556)
Longitude:9145'04"W (-91.750999)
Datum:WGS 1984
Elevation:267 ft (81 m)
Variation:0.27E (WMM2015 magnetic declination)
-0.10 annual change
Runways:1
Longest:5020 × 75 ft (1530 × 23 m), paved

Time
Time Zone:UTC-6 (DST-5)
Local Time:

Weather
METAR:KLLQ 311953Z AUTO 22012G19KT 10SM SCT044 BKN060 27/16 A2993 RMK AO2 LTG DSNT N AND NE SLP132 T02720161
TAF:KLLQ 311743Z 3118/0118 24009KT P6SM VCTS SCT020 BKN050CB
TEMPO 3121/0101 5SM -TSRA BR BKN025CB
FM010200 VRB04KT P6SM OVC035
FM010900 13005KT P6SM BKN020
FM011400 15009KT P6SM OVC015

Related Locations
Nearby:
Farthest:MGV: 10903 mi / 17547 km
Margaret River, WA, AU

Find:

   beyond  
but within

Other Information
Maps:
NOTAMs:
Links:
Sources:

  
flag of United States
flag of Arkansas
  

Sectional Chart

Flight Planning
at skyvector.com

Satellite Image

Google Maps Satellite View

 

Copyright © 2004-2015 Karl L. Swartz. All rights reserved.
The Great Circle Mapper name and logo are trademarks of the Great Circle Mapper.
All other trademarks mentioned herein belong to their respective owners.
Please see credits for attibutions and further copyright information.

  Follow gcmap on Facebook Follow gcmap on Twitter Follow gcmap on Google+

hCard Microformat

Geo Microformat